ONEWEB-0156

Last updated on Sun Apr 25 2021 00:02:03 GMT+0000 (Coordinated Universal Time)

1 48052U 21025L 21114.58336806 -.01096083 00000-0 -55458-1 0 9994 2 48052 87.4182 339.3802 0010878 156.2591 190.5990 15.20144977 1781

Satellite not in orbit